User: anonymous   Login
Location: Unspecified
(0.0000°N, 0.0000°E)
Time: 19:19:50
(UTC+00:00)
Language:

ERS 15 - Orbit

View from above orbital plane
View from above orbital plane
View from above satellite
View from above satellite

Ground track
Ground track

The orbit data is extracted from the following two-line orbital elements,

1  2412U 66077C   18167.16715424 +.00000002 +00000-0 +00000-0 0  9990
2  2412 090.2104 247.5885 0015107 110.4331 249.8144 08.59070070139431
Epoch (UTC): 16 June 2018 04:00:42
Eccentricity: 0.0015107
inclination: 90.2104°
perigee height: 3677 km
apogee height: 3707 km
right ascension of ascending node: 247.5885°
argument of perigee: 110.4331°
revolutions per day: 8.59070070
mean anomaly at epoch: 249.8144°
orbit number at epoch: 13943

The dashed part of the orbit path shows where the satellite is in the earth's shadow,  

DLR